Lexington Weather

Lexington, Massachusetts, USA

47°F
12/8/2022 3:32pm 
  • Lexington Conditions: Clear
  • Temperature: 46.9°F / 8.3°CColder 2.0°F than last hour.
  • Dew Point: 35.1°FDecreased 0.5°Fsince last hour.
  • Relative Humidity: 63%Increased 3.0% since last hour.
  • Wind: Wind from NW NW 6 mph, 10-min avg: 2 mph, gust: 12 mph
  • Barometer: 30.09 inRising 0.02  inHg/hr Rising Slowly
  • Visibility: 10 miles
  • Rain Today: 0.00 in
  •   

Warning: Undefined variable $rc in /homepages/6/d276339138/htdocs/weather/20190804/ssi/nwsProduct.php on line 323

Warning: Undefined variable $rc in /homepages/6/d276339138/htdocs/weather/20190804/ssi/nwsProduct.php on line 325

Warning: Undefined variable $rc in /homepages/6/d276339138/htdocs/weather/20190804/ssi/nwsProduct.php on line 323

Warning: Undefined variable $rc in /homepages/6/d276339138/htdocs/weather/20190804/ssi/nwsProduct.php on line 325

Warning: Undefined variable $rc in /homepages/6/d276339138/htdocs/weather/20190804/ssi/nwsProduct.php on line 323

Warning: Undefined variable $rc in /homepages/6/d276339138/htdocs/weather/20190804/ssi/nwsProduct.php on line 325

Warning: Undefined variable $rc in /homepages/6/d276339138/htdocs/weather/20190804/ssi/nwsProduct.php on line 323

Warning: Undefined variable $rc in /homepages/6/d276339138/htdocs/weather/20190804/ssi/nwsProduct.php on line 325

Warning: Undefined variable $rc in /homepages/6/d276339138/htdocs/weather/20190804/ssi/nwsProduct.php on line 323

Warning: Undefined variable $rc in /homepages/6/d276339138/htdocs/weather/20190804/ssi/nwsProduct.php on line 325

Warning: Undefined variable $rc in /homepages/6/d276339138/htdocs/weather/20190804/ssi/nwsProduct.php on line 323

Warning: Undefined variable $rc in /homepages/6/d276339138/htdocs/weather/20190804/ssi/nwsProduct.php on line 325

Warning: Undefined variable $rc in /homepages/6/d276339138/htdocs/weather/20190804/ssi/nwsProduct.php on line 323

Warning: Undefined variable $rc in /homepages/6/d276339138/htdocs/weather/20190804/ssi/nwsProduct.php on line 325

Regional Weather Roundup
for Boston, MA

        
000
ASUS41 KBOX 020110
RWRBOX

REGIONAL WEATHER ROUNDUP
NATIONAL WEATHER SERVICE BOSTON/NORTON MA
800 PM EST THU DEC 01 2022

NOTE:  "FAIR" INDICATES FEW OR NO CLOUDS BELOW 12,000 FEET WITH NO 
SIGNIFICANT WEATHER AND/OR OBSTRUCTIONS TO VISIBILITY.

MAZALL-020200-
EASTERN MASSACHUSETTS
  
CITY           SKY/WX    TMP DP  RH WIND       PRES   REMARKS
BOSTON         PTCLDY    39  22  50 W13G24    30.29R WCI  31          
BEVERLY        CLEAR     36  20  52 W9        30.27R WCI  29          
LAWRENCE       CLEAR     37  21  52 W8        30.28R WCI  31          
BEDFORD        CLEAR     36  21  54 W5        30.28R                  
NORWOOD        CLEAR     38  23  55 W9        30.31R WCI  31          
MARSHFIELD       N/A     37  21  52 VRB6      30.29R                  
PLYMOUTH       CLEAR     36  21  54 W7        30.30R WCI  30          
TAUNTON          N/A    N/A N/A N/A MISG      30.31R                  
NEW BEDFORD    CLEAR     38  22  52 W10       30.32R WCI  31          
$$

MAZALL-020200-
CAPE COD AND THE ISLANDS
  
CITY           SKY/WX    TMP DP  RH WIND       PRES   REMARKS
FALMOUTH       CLEAR     36  19  51 NW12G18   30.31R WCI  27          
HYANNIS        CLEAR     37  21  52 W12       30.27R WCI  29          
CHATHAM        PTCLDY    41  21  44 VRB7G23   30.30R                  
PROVINCETOWN   MOCLDY    41  26  55 NW24G31   30.29R WCI  31          
NANTUCKET      PTCLDY    42  23  46 NW16G28   30.32R                  
MARTHAS VNYRD  CLEAR     40  22  48 NW13G23   30.32R                  
$$
 
MAZALL-020200-
CENTRAL AND WESTERN MASSACHUSETTS
  
CITY           SKY/WX    TMP DP  RH WIND       PRES   REMARKS
WORCESTER      PTCLDY    34  21  59 W12       30.27R WCI  25          
FITCHBURG      MOCLDY    34  21  59 W6        30.29R WCI  29          
ORANGE         CLEAR     35  22  58 W8        30.30R WCI  29          
SPRINGFIELD    PTCLDY    37  20  49 NW10      30.32R WCI  30          
WESTFIELD      CLEAR     37  20  50 NW9G20    30.33R WCI  30          
NORTH ADAMS    CLOUDY    35  22  58 W18G28    30.32R WCI  24          
PITTSFIELD     CLOUDY    33  20  58 W10       30.31R WCI  25          
$$
 
RIZALL-020200-
RHODE ISLAND
  
CITY           SKY/WX    TMP DP  RH WIND       PRES   REMARKS
PROVIDENCE     CLEAR     37  21  52 W10       30.33R WCI  30          
NEWPORT        CLEAR     37  21  52 W9        30.33R WCI  30          
BLOCK ISLAND   CLEAR     38  20  48 NW15G29   30.37R WCI  29          
SMITHFIELD     CLEAR     35  21  56 W10G17    30.31R WCI  27          
WESTERLY       CLEAR     37  19  48 VRB5      30.36R                  
$$
 
CTZALL-020200-
CONNECTICUT
  
CITY           SKY/WX    TMP DP  RH WIND       PRES   REMARKS
BRADLEY INTL   PTCLDY    36  19  50 SW5       30.36R                  
HARTFORD       MOCLDY    38  20  48 W5        30.38R                  
BRIDGEPORT     CLEAR     33  20  58 NW5       30.40R WCI  29          
DANBURY        CLEAR     35  17  47 VRB3      30.40R                  
GROTON         CLEAR     39  20  46 W10       30.37R                  
NEW HAVEN      CLEAR     40  22  48 NW9       30.39R                  
CHESTER        FAIR      36  18  48 W5G15     30.37R WCI  32          
MERIDEN        CLEAR     37  17  44 VRB3      30.38R                  
WILLIMANTIC    CLEAR     36  20  52 W6        30.35R WCI  31          
OXFORD         CLEAR     33  18  53 VRB5      30.36R WCI  29          
$$

MEZ002-015-021-024-NHZ003-005-008-011-012-014-VTZ005-008-020200-
NORTHERN NEW ENGLAND
  
CITY           SKY/WX    TMP DP  RH WIND       PRES   REMARKS
PORTLAND ME    CLEAR     34  18  52 NW14      30.21R WCI  25          
BANGOR ME      MOCLDY    33  16  49 NW20G32   30.12R WCI  21          
CONCORD NH     CLEAR     34  20  56 NW12      30.24R WCI  25          
MANCHESTER NH  CLEAR     36  20  52 SW7       30.25R WCI  30          
NASHUA NH      CLEAR     36  21  54 CALM      30.28R                  
PORTSMOUTH NH  CLEAR     35  20  53 W8        30.25R WCI  29          
JAFFREY NH     MOCLDY    35  22  58 VRB7      30.24R WCI  29          
KEENE NH       PTCLDY    35  23  61 W6          N/A  WCI  30          
BURLINGTON VT  MOCLDY    35  20  54 NW13      30.31R WCI  26          
MT. WASHINGTON NOT AVBL                                               
$$

NYZ052-076-020200-
EASTERN NEW YORK
  
CITY           SKY/WX    TMP DP  RH WIND       PRES   REMARKS
ALBANY         MOCLDY    37  22  54 W13       30.38R WCI  29          
NEW YORK CITY  CLEAR     40  19  43 NW15      30.41S WCI  32          
$$
 
ANZALL-020200-
MARINE OBSERVATIONS
  
STATION/POSITION TIME  TEMP    WIND        PRES    VSBY  WAVE
                       AIR SEA DIR/SP/G                  HT/PER
                 (UTC) (F)     (DEG/KT/KT) (MB)    (MI)  (FT/S)
BOSTON BUOY      0050      51  280/ 19/ 23 1025.8R         4/ 4
BUZZARDS BAY     0000   41     300/ 30/ 33 1026.3R
NANTUCKET SOUND  0050   42     280/ 19/ 25 1026.3R         3/ 4
MASS BAY-STELLWA 2304   42 51  280/ 21/ 27 1022.3R  1 7/8  3/ 4
ISLE OF SHOALS   0000   39     280/ 17/ 20 1023.0R
S OF BLOCK IS    0026      56                N/A           8/ 6
$$

......................KEY.........................
  SKY/WX - SKY CONDITION/PRESENT WEATHER
  TMP    - TEMPERATURE IN FAHRENHEIT
  DWPT   - DEWPOINT IN FAHRENHEIT
  RH     - RELATIVE HUMIDITY IN PERCENT
  WIND   - DIRECTION AND SPEED IN MPH
  PRES   - MEAN SEA LEVEL PRESSURE IN INCHES OF HG
  WCI    - WIND CHILL INDEX
  VSB    - VISIBILITY IN MILES
  HX     - HEAT INDEX
  TC     - TEMPERATURE IN CELSIUS
  VRB    - VARIABLE WIND DIRECTION
  N/A    - NOT AVAILABLE
  
      

Other recent Regional Weather Roundups

Thu Dec 8, 3:10pm

Thu Dec 8, 2:10pm

Thu Dec 8, 1:10pm

Thu Dec 8, 12:10pm

Thu Dec 8, 11:10am

Thu Dec 8, 10:10am

Thu Dec 8, 9:10am

Thu Dec 8, 8:10am

Thu Dec 8, 7:10am

Thu Dec 8, 6:10am

Thu Dec 8, 5:10am

Thu Dec 8, 4:10am

Thu Dec 8, 3:10am

Thu Dec 8, 2:10am

Thu Dec 8, 1:10am

Thu Dec 8, 12:10am

Wed Dec 7, 11:10pm

Wed Dec 7, 10:10pm

Wed Dec 7, 9:10pm

Wed Dec 7, 8:10pm

Wed Dec 7, 7:10pm

Wed Dec 7, 6:10pm

Wed Dec 7, 5:10pm

Wed Dec 7, 4:10pm

Wed Dec 7, 3:10pm

Wed Dec 7, 2:10pm

Wed Dec 7, 1:10pm

Wed Dec 7, 12:10pm

Wed Dec 7, 11:10am

Wed Dec 7, 10:10am

Wed Dec 7, 9:10am

Wed Dec 7, 8:10am

Wed Dec 7, 7:10am

Wed Dec 7, 6:10am

Wed Dec 7, 5:10am

Wed Dec 7, 4:10am

Wed Dec 7, 3:10am

Wed Dec 7, 2:10am

Wed Dec 7, 1:10am

Wed Dec 7, 12:10am

Tue Dec 6, 11:10pm

Tue Dec 6, 10:10pm

Tue Dec 6, 9:10pm

Tue Dec 6, 8:10pm

Tue Dec 6, 7:10pm

Tue Dec 6, 6:10pm

Tue Dec 6, 5:10pm

Tue Dec 6, 4:10pm

Tue Dec 6, 3:10pm

Tue Dec 6, 2:10pm

Tue Dec 6, 1:10pm

Tue Dec 6, 12:10pm

Tue Dec 6, 11:10am

Tue Dec 6, 10:10am

Tue Dec 6, 9:10am

Tue Dec 6, 8:10am

Tue Dec 6, 7:10am

Tue Dec 6, 6:10am

Tue Dec 6, 5:10am

Tue Dec 6, 4:10am

Tue Dec 6, 3:10am

Tue Dec 6, 2:10am

Tue Dec 6, 1:10am

Tue Dec 6, 12:10am

Mon Dec 5, 11:10pm

Mon Dec 5, 10:10pm

Mon Dec 5, 9:10pm

Mon Dec 5, 8:10pm

Mon Dec 5, 7:10pm

Mon Dec 5, 6:10pm

Mon Dec 5, 5:10pm

Mon Dec 5, 4:10pm

Mon Dec 5, 3:10pm

Mon Dec 5, 2:10pm

Mon Dec 5, 1:10pm

Mon Dec 5, 12:10pm

Mon Dec 5, 11:10am

Mon Dec 5, 10:10am

Mon Dec 5, 9:10am

Mon Dec 5, 8:10am

Mon Dec 5, 7:10am

Mon Dec 5, 6:10am

Mon Dec 5, 5:10am

Mon Dec 5, 4:10am

Mon Dec 5, 3:10am

Mon Dec 5, 2:10am

Mon Dec 5, 1:10am

Mon Dec 5, 12:10am

Sun Dec 4, 11:10pm

Sun Dec 4, 10:10pm

Sun Dec 4, 9:10pm

Sun Dec 4, 8:10pm

Sun Dec 4, 7:10pm

Sun Dec 4, 6:10pm

Sun Dec 4, 5:10pm

Sun Dec 4, 4:10pm

Sun Dec 4, 3:10pm

Sun Dec 4, 2:10pm

Sun Dec 4, 1:10pm

Sun Dec 4, 12:10pm

Sun Dec 4, 11:10am

Sun Dec 4, 10:10am

Sun Dec 4, 9:10am

Sun Dec 4, 8:10am

Sun Dec 4, 7:10am

Sun Dec 4, 6:10am

Sun Dec 4, 5:10am

Sun Dec 4, 4:10am

Sun Dec 4, 3:10am

Sun Dec 4, 2:10am

Sun Dec 4, 1:10am

Sun Dec 4, 12:10am

Sat Dec 3, 11:10pm

Sat Dec 3, 10:10pm

Sat Dec 3, 9:10pm

Sat Dec 3, 8:10pm

Sat Dec 3, 7:10pm

Sat Dec 3, 6:10pm

Sat Dec 3, 5:10pm

Sat Dec 3, 4:10pm

Sat Dec 3, 3:10pm

Sat Dec 3, 2:10pm

Sat Dec 3, 1:10pm

Sat Dec 3, 12:10pm

Sat Dec 3, 11:10am

Sat Dec 3, 10:10am

Sat Dec 3, 9:10am

Sat Dec 3, 8:10am

Sat Dec 3, 7:10am

Sat Dec 3, 6:10am

Sat Dec 3, 5:10am

Sat Dec 3, 4:10am

Sat Dec 3, 3:10am

Sat Dec 3, 2:10am

Sat Dec 3, 1:10am

Sat Dec 3, 12:10am

Fri Dec 2, 11:10pm

Fri Dec 2, 10:10pm

Fri Dec 2, 9:10pm

Fri Dec 2, 8:10pm

Fri Dec 2, 7:10pm

Fri Dec 2, 6:10pm

Fri Dec 2, 5:10pm

Fri Dec 2, 4:10pm

Fri Dec 2, 3:10pm

Fri Dec 2, 2:10pm

Fri Dec 2, 1:10pm

Fri Dec 2, 12:10pm

Fri Dec 2, 11:10am

Fri Dec 2, 10:10am

Fri Dec 2, 9:10am

Fri Dec 2, 8:10am

Fri Dec 2, 7:10am

Fri Dec 2, 6:10am

Fri Dec 2, 5:10am

Fri Dec 2, 4:10am

Fri Dec 2, 3:10am

Fri Dec 2, 2:10am

Fri Dec 2, 1:10am

Fri Dec 2, 12:10am

Thu Dec 1, 11:10pm

Thu Dec 1, 10:10pm

Thu Dec 1, 9:10pm

Thu Dec 1, 7:10pm

Thu Dec 1, 6:10pm

Thu Dec 1, 5:10pm

Thu Dec 1, 4:10pm

Meta data:

ID: d7708623-093b-493d-bbfe-adf95210007f
Link: https://api.weather.gov/products/d7708623-093b-493d-bbfe-adf95210007f